Terminal Aerodrome Forecast
Issued by NWS

Home | Current Version | Previous Version | Text Only | Print | Product List | Glossary On
Versions: 1 2 3 4 5 6 7 8 9 10 11 12 13 14
000
FTUS42 KMLB 202300 RRA
TAFSFB
TAF
KSFB 202343Z 2100/2124 12008KT P6SM SCT060 BKN250
     FM210200 VRB02KT P6SM BKN250
     FM211400 29004KT P6SM SCT030 BKN150 OVC250=

USA.gov is the U.S. government's official web portal to all federal, state and local government web resources and services.